Regional Weather Roundup
Issued by NWS Green Bay, WI

Home | Current Version | Previous Version | Graphics & Text | Print | Product List | Glossary Off
Versions: 1 2 3 4 5 6 7 8 9 10 11 12 13 14 15 16 17 18 19 20 21 22 23 24 25 26 27 28 29 30 31 32 33 34 35 36 37 38 39 40 41 42 43 44 45 46 47 48 49 50

000
ASUS43 KGRB 252259
RWRGRB

NORTH-CENTRAL AND NORTHEAST WISCONSIN REGIONAL WEATHER ROUNDUP
NATIONAL WEATHER SERVICE GREEN BAY WI
500 PM CST SUN JAN 25 2015

WIZ005-009-010>012-018-019-260000-
NORTH CENTRAL WISCONSIN

CITY           SKY/WX    TMP DP  RH WIND       PRES   REMARKS
IRONWOOD       CLOUDY    18   7  62 CALM      29.98S
MANITOWISH WTR NOT AVBL
ARBOR VITAE    NOT AVBL
EAGLE RIVER    NOT AVBL
LAND O LAKES   NOT AVBL
RHINELANDER    CLOUDY    18   5  57 CALM      29.98F
PHILLIPS       NOT AVBL
ANTIGO         NOT AVBL
TOMAHAWK       NOT AVBL
MERRILL        NOT AVBL
$$

WIZ013-073-260000-
NORTHEAST WISCONSIN

CITY           SKY/WX    TMP DP  RH WIND       PRES   REMARKS
IRON MOUNTAIN  CLEAR     16   5  62 CALM      30.01F
MARINETTE      CLEAR     16   7  67 E6        30.06S WCI   7
$$

WIZ017-030-035>037-045-260000-
CENTRAL WISCONSIN

CITY           SKY/WX    TMP DP  RH WIND       PRES   REMARKS
MEDFORD        NOT AVBL
WAUSAU         MOCLDY    19   4  51 E3        30.00S
MOSINEE        PTCLDY    19   7  58 N6        30.02R
MARSHFIELD     CLOUDY    21   9  59 NE7       30.01R
WISC RAPIDS    CLOUDY    19   6  57 E5        30.05R
STEVENS POINT  NOT AVBL
WAUPACA        NOT AVBL
SHAWANO        NOT AVBL
CLINTONVILLE   NOT AVBL
$$

WIZ038-039-048-051-260000-
FOX VALLEY

CITY           SKY/WX    TMP DP  RH WIND       PRES   REMARKS
NWS GREEN BAY  CLEAR     17   9  70 NE13      30.06R WCI   4
APPLETON       PTCLDY    19   7  58 NE10      30.05R WCI   8
OSHKOSH        CLEAR     19  10  68 N13       30.04R WCI   6
FOND DU LAC    PTCLDY    19  11  70 N15       30.03R WCI   5
$$

WIZ022-050-052-260000-
EAST CENTRAL WISCONSIN

CITY           SKY/WX    TMP DP  RH WIND       PRES   REMARKS
STURGEON BAY   CLEAR     16   3  57 NE7       30.07S WCI   6
MANITOWOC      NOT AVBL
SHEBOYGAN      MOCLDY    21  12  68 N16G23    30.02R WCI   7
$$

LMZ563-521-522-541>543-260000-
LAKESHORE

STATION/POSITION TIME  TEMP    WIND        PRES    VSBY  WAVE
                       AIR SEA DIR/SP/G                  HT/PER
                 (UTC) (F)     (DEG/KT/KT) (MB)    (MI)  (FT/S)
SHEBOYGAN LKSHOR 2200   24      20/ 23/ 26 1017.2R
KEWAUNEE LKSHORE 2200   21      40/ 16/ 22 1016.7R
NORTHPORT PIER   2200   18      20/  6/  7 1018.3S
SISTER BAY LKSHO 2200   23      30/  5/  9   N/A
STURGEON BAY CG  2200   19      10/  6     1018.5      6   0
CHAMBERS ISLAND  2200   16      50/  4/  6 1018.6R
MENOMINEE LKSHOR 2200   17      40/  4/  6 1019.0R
$$



USA.gov is the U.S. government's official web portal to all federal, state and local government web resources and services.